Location: B�rgermoos
(47.6500°N, 9.0667°E)
Time: 13:17:11
(UTC+00:00)

S-56A Canister/Altair - All Passes

Search period start: 02 August 2021 00:00
Search period end: 12 August 2021 00:00
Orbit: 631 x 2501 km, 38.9° (Epoch: 01 August)

Date Brightness Start Highest point End Pass type
(mag) Time Alt. Az. Time Alt. Az. Time Alt. Az.
02 Aug - 12:33:27 10° SSW 12:43:56 33° SE 12:56:14 10° E daylight
02 Aug - 14:35:30 10° SW 14:48:38 55° SSE 15:02:59 10° E daylight
02 Aug - 16:40:10 10° W 16:54:34 60° S 17:08:17 10° ESE daylight
02 Aug - 18:46:17 10° W 18:59:59 44° SSW 19:11:38 10° SE daylight
02 Aug - 20:54:55 10° W 21:03:28 19° SW 21:10:55 10° SSW visible
03 Aug - 12:01:11 10° SSW 12:10:50 29° SE 12:22:23 10° E daylight
03 Aug - 14:02:39 10° SW 14:15:12 52° SSE 14:29:33 10° E daylight
03 Aug - 16:06:55 10° WSW 16:21:03 61° S 16:35:09 10° ESE daylight
03 Aug - 18:12:43 10° W 18:26:40 47° SSW 18:38:58 10° SE daylight
03 Aug - 20:20:38 10° W 20:30:32 22° SW 20:39:08 10° S visible
04 Aug - 11:29:05 10° S 11:37:51 25° SE 11:48:24 10° E daylight
04 Aug - 13:29:52 10° SW 13:41:50 50° SSE 13:56:01 10° E daylight
04 Aug - 15:33:46 10° WSW 15:47:31 61° S 16:01:56 10° ESE daylight
04 Aug - 17:39:15 10° W 17:53:17 49° SSW 18:06:11 10° SE daylight
04 Aug - 19:46:35 10° W 19:57:32 26° SW 20:07:08 10° S visible
05 Aug - 10:57:11 10° S 11:04:56 22° SE 11:14:16 10° E daylight
05 Aug - 12:57:14 10° SW 13:08:32 47° SSE 13:22:25 10° E daylight
05 Aug - 15:00:43 10° WSW 15:14:00 61° S 15:28:37 10° ESE daylight
05 Aug - 17:05:52 10° W 17:19:51 52° SSW 17:33:17 10° SE daylight
05 Aug - 19:12:42 10° W 19:24:27 29° SW 19:34:55 10° S visible
06 Aug - 10:25:32 10° SSE 10:32:07 18° SE 10:39:56 10° E daylight
06 Aug - 12:24:42 10° SW 12:35:18 43° SSE 12:48:44 10° E daylight
06 Aug - 14:27:46 10° WSW 14:40:30 60° S 14:55:14 10° E daylight
06 Aug - 16:32:36 10° W 16:46:24 54° SSW 17:00:17 10° SE daylight
06 Aug - 18:38:58 10° W 18:51:16 32° SW 19:02:32 10° SSE daylight
07 Aug - 09:54:17 10° SSE 09:59:23 15° SE 10:05:15 10° E daylight
07 Aug - 11:52:16 10° SSW 12:02:10 40° SSE 12:14:59 10° E daylight
07 Aug - 13:54:53 10° WSW 14:07:03 59° S 14:21:44 10° E daylight
07 Aug - 15:59:24 10° W 16:12:55 56° SSW 16:27:09 10° ESE daylight
07 Aug - 18:05:22 10° W 18:18:03 35° SW 18:30:00 10° SSE daylight
07 Aug - 20:16:31 10° WSW 20:21:19 12° SW 20:25:54 10° SW visible
08 Aug - 09:23:58 10° SE 09:26:43 11° SE 09:29:41 10° ESE daylight
08 Aug - 11:19:57 10° SSW 11:29:08 36° SE 11:41:10 10° E daylight
08 Aug - 13:22:08 10° WSW 13:33:40 57° SSE 13:48:10 10° E daylight
08 Aug - 15:26:19 10° W 15:39:25 57° S 15:53:56 10° ESE daylight
08 Aug - 17:31:54 10° W 17:44:45 38° SSW 17:57:19 10° SSE daylight
08 Aug - 19:41:19 10° W 19:48:22 15° SW 19:55:06 10° SSW visible
09 Aug - 10:47:46 10° SSW 10:56:11 32° SE 11:07:17 10° E daylight
09 Aug - 12:49:27 10° WSW 13:00:21 55° SSE 13:14:33 10° E daylight
09 Aug - 14:53:18 10° W 15:05:57 58° S 15:20:35 10° ESE daylight
09 Aug - 16:58:33 10° W 17:11:24 41° SSW 17:24:30 10° SSE daylight
09 Aug - 19:06:50 10° W 19:15:22 18° SW 19:23:34 10° SSW visible
10 Aug - 10:15:42 10° SSW 10:23:20 28° SE 10:33:21 10° E daylight
10 Aug - 12:16:52 10° SW 12:27:07 52° SSE 12:40:52 10° E daylight
10 Aug - 14:20:24 10° W 14:32:30 59° S 14:47:10 10° ESE daylight
10 Aug - 16:25:18 10° W 16:38:02 44° SSW 16:51:33 10° SE daylight
10 Aug - 18:32:44 10° W 18:42:18 21° SW 18:51:39 10° S daylight
11 Aug - 09:43:48 10° S 09:50:34 24° SE 09:59:19 10° E daylight
11 Aug - 11:44:23 10° SW 11:53:57 49° SSE 12:07:09 10° E daylight
11 Aug - 13:47:34 10° WSW 13:59:06 59° S 14:13:40 10° ESE daylight
11 Aug - 15:52:09 10° W 16:04:39 46° SSW 16:18:29 10° SE daylight
11 Aug - 17:58:54 10° W 18:09:10 23° SW 18:19:27 10° S daylight
